Regional Weather Roundup
Issued by NWS

Home | Current Version | Previous Version | Text Only | Print | Product List | Glossary On
Versions: 1 2 3 4 5 6 7 8 9 10 11 12 13 14 15 16 17 18 19 20 21 22 23 24 25 26 27 28 29 30 31 32 33 34 35 36 37 38 39 40 41 42 43 44 45 46 47 48 49 50
000
ASUS46 KSEW 021710
RWRWA

WASHINGTON REGIONAL WEATHER ROUNDUP
NATIONAL WEATHER SERVICE SEATTLE WA
1000 AM PDT WED SEP 02 2015

NOTE:"FAIR" INDICATES FEW OR NO CLOUDS BELOW 12,000 FEET WITH NO
SIGNIFICANT WEATHER AND/OR OBSTRUCTIONS TO VISIBILITY.

WAZ505-507>509-021800-
SEATTLE, TACOMA, EVERETT, AND VICINITY

CITY           SKY/WX    TMP DP  RH WIND       PRES   REMARKS
EVERETT        CLOUDY    56  47  71 SE8       29.90R
BOEING FIELD   PTSUNNY   62  51  67 S6        29.90R
RENTON         MOSUNNY   61  50  67 S8        29.89S
SEATAC AIRPORT MOSUNNY   60  51  72 SW9       29.91R
JBLM-MCCHORD   MOSUNNY   60  52  75 SW5       29.91R
PUYALLUP       PTSUNNY   59  54  82 CALM      29.92R
BREMERTON      MOSUNNY   57  52  82 SW7       29.92R
JBLM-FT LEWIS  LGT RAIN  59  54  82 VRB3      29.90R
TACOMA NARROWS MOSUNNY   60  51  72 SW12G18   29.90S
$$

WAZ001-503-506-510-514-515-021800-
NORTH INTERIOR

CITY           SKY/WX    TMP DP  RH WIND       PRES   REMARKS
BELLINGHAM     LGT RAIN  54  51  90 S6        29.87S
FRIDAY HARBOR  MOSUNNY   56  53  90 SE8       29.88F
EASTSOUND      MOSUNNY   54  50  87 S12       29.85F
PORT ANGELES   PTSUNNY   59  51  75 E8        29.87S
PORT TOWNSEND  CLOUDY    59  54  82 E10       29.88R
NAS WHIDBEY    PTSUNNY   60  54  80 S13       29.92S
ARLINGTON      CLOUDY    57  48  72 SE5       29.90R
BURLINGTON     CLOUDY    59  52  77 S7        29.89S
$$

WAZ020-022-039-040-504-511-512-021800-
SOUTHWEST INTERIOR

CITY           SKY/WX    TMP DP  RH WIND       PRES   REMARKS
SHELTON        MOSUNNY   60  51  72 SW9       29.88R
OLYMPIA        PTSUNNY   60  50  69 SW9       29.90S
CHEHALIS       CLOUDY    63  55  77 CALM      29.92R
KELSO          NOT AVBL
VANCOUVER      CLOUDY    62  53  72 SW5       29.93R
SCAPPOOSE, OR  LGT RAIN  60  55  83 CALM      29.93R
PORTLAND, OR   CLOUDY    62  57  83 CALM      29.93R
$$

WAZ021-516-517-021800-
WASHINGTON COAST

CITY           SKY/WX    TMP DP  RH WIND       PRES   REMARKS
FORKS          SUNNY     60  55  83 S9        29.86S
HOQUIAM        CLOUDY    62  52  69 SW12      29.90R
ASTORIA, OR    PTSUNNY   61  56  83 SW8       29.92R
$$

WAZ019-023-024-040-518-519-021800-
CASCADE MOUNTAINS AND COLUMBIA GORGE

CITY           SKY/WX    TMP DP  RH WIND       PRES   REMARKS
TROUTDALE, OR  CLOUDY    62  55  77 VRB3      29.93R
THE DALLES, OR LGT RAIN  63  49  60 NW16G26   29.90R
$$

WAZ026-027-041>044-520-521-021800-
EAST SLOPES

CITY           SKY/WX    TMP DP  RH WIND       PRES   REMARKS
OMAK           SUNNY     69  33  26 S16       29.74R
WENATCHEE      SUNNY     66  38  35 W17       29.80R
ELLENSBURG     SUNNY     63  39  41 NW23G30   29.86R
YAKIMA         MOSUNNY   68  43  40 CALM      29.85R
$$

WAZ028-034-035-021800-
COLUMBIA BASIN

CITY           SKY/WX    TMP DP  RH WIND       PRES   REMARKS
EPHRATA        SUNNY     69  38  32 W15       29.80R
MOSES LAKE     SUNNY     67  42  40 S7        29.82R
PASCO          MOSUNNY   70  46  42 SW15      29.85S
HERMISTON, OR  CLOUDY    64  47  53 SW17      29.88R
$$

WAZ036>038-021800-
NORTHEAST WASHINGTON

CITY           SKY/WX    TMP DP  RH WIND       PRES   REMARKS
SPOKANE GEIGER PTSUNNY   62  45  53 SW21G32   29.82R
SPOKANE FELTS  CLOUDY    62  47  57 SW16      29.82R
FAIRCHILD AFB  PTSUNNY   61  43  50 S21G29    29.82R
COEURDALENE,ID CLOUDY    61  46  59 S14       29.83R
DEER PARK      PTSUNNY   62  47  57 SW14G25   29.81R
$$

WAZ029>033-021800-
SOUTHEAST WASHINGTON

CITY           SKY/WX    TMP DP  RH WIND       PRES   REMARKS
PULLMAN        CLOUDY    60  45  57 W13G26    29.90R
LEWISTON, ID   CLOUDY    67  47  48 N3        29.85R
WALLA WALLA    LGT RAIN  61  50  67 SW9       29.90R
PENDLETON, OR  LGT RAIN  60  45  57 SW13      29.90R
$$


USA.gov is the U.S. government's official web portal to all federal, state and local government web resources and services.